Lapse_Rate
8.7 8.7 8.5 8.2 8.1 8.2 8.4 7.8 7.2 6.2 6.3 6.7 6.4 6.3 7.0 7.6 7.2 5.3 3.1 0.8 0.6 3.6 5.1 3.9 2.7 4.3 4.5 4.2 6.5 5.2 5.7 5.7 6.2 6.5 6.5 6.5 6.5 6.5 6.5 6.5 6.5 6.5 6.5 6.5 6.5 6.5 6.5 6.1 6.3 6.5 6.2 5.9 5.7 5.7
8.2 8.3 8.5 8.4 8.1 8.0 8.4 7.8 6.5 6.0 6.2 6.7 6.4 6.7 7.4 7.6 7.2 6.1 3.0 2.3 1.1 1.1 5.6 5.3 4.2 3.4 3.3 3.4 3.3 3.8 5.5 5.7 5.2 6.5 6.5 6.5 6.5 6.5 6.5 6.5 6.5 6.5 6.5 6.5 6.5 6.5 6.0 3.9 5.0 4.6 4.5 4.4 5.1 5.0
8.0 7.9 8.2 8.2 7.8 7.9 8.0 7.7 6.0 5.7 6.2 6.4 6.5 6.9 7.7 7.6 7.2 5.7 3.3 1.3 -0.1 3.2 4.8 4.3 4.7 4.6 4.3 3.1 3.1 3.8 3.5 4.4 4.2 3.1 5.2 6.4 6.5 6.5 6.5 6.5 6.5 6.5 6.0 6.5 6.5 6.5 6.3 5.1 5.0 4.5 4.4 4.6 5.0 5.5
7.7 7.8 8.3 8.2 7.8 8.0 8.0 7.6 5.7 6.0 6.4 6.5 7.0 7.3 7.9 8.0 7.2 5.3 3.6 0.7 1.0 2.6 5.6 6.1 5.9 5.2 4.3 3.6 3.6 2.8 2.1 2.3 2.5 2.1 3.6 6.5 6.5 5.8 6.5 6.5 6.5 6.1 6.3 6.5 6.5 6.3 5.8 5.8 5.4 5.0 5.2 5.6 5.7 5.7
7.6 7.6 8.0 8.1 7.7 8.0 7.8 7.1 6.1 6.1 6.4 6.8 6.9 8.0 8.0 7.6 5.9 4.4 2.0 1.3 1.2 2.8 6.2 6.0 5.4 5.8 4.5 4.3 3.4 3.2 3.1 2.5 2.4 3.2 5.7 6.5 5.4 6.1 6.0 6.4 6.5 5.6 6.5 6.5 6.5 5.5 5.5 5.5 5.2 5.3 5.3 5.1 5.0 5.0
7.6 7.5 7.8 7.9 7.8 8.0 7.3 6.9 6.0 6.4 6.2 6.7 6.7 7.3 7.0 6.6 5.6 4.7 5.1 2.9 2.6 1.6 2.7 6.5 5.7 6.0 5.4 4.7 3.8 3.3 2.8 2.0 2.3 3.7 5.3 4.5 4.8 4.7 6.5 6.5 5.9 4.8 4.2 4.4 5.0 5.1 4.7 5.8 4.7 5.0 4.7 4.7 4.7 4.5
7.5 7.6 7.7 7.7 7.7 7.5 7.2 5.7 6.1 6.8 6.7 6.5 7.2 7.2 6.4 5.4 3.1 4.1 4.1 3.0 3.1 1.8 2.2 6.5 6.4 5.6 5.8 4.7 3.6 3.4 2.6 2.4 2.6 4.1 5.2 4.9 4.8 3.2 6.5 6.5 6.0 5.0 4.4 4.0 4.5 4.6 5.5 5.5 5.0 4.4 3.8 3.7 4.3 4.1
7.4 7.4 7.5 7.7 7.8 7.4 6.9 5.1 6.3 6.7 6.8 7.0 7.1 6.3 6.7 5.8 4.5 3.1 2.6 3.6 2.7 1.8 1.7 6.5 6.5 5.1 5.9 4.9 5.3 3.4 3.7 3.3 3.4 4.5 4.5 5.6 5.1 5.2 6.5 6.0 5.6 4.7 4.0 4.4 4.4 4.5 4.6 4.6 4.2 3.7 3.8 3.6 3.5 3.4
7.1 7.1 7.2 7.5 7.9 7.2 6.6 5.7 6.5 6.6 6.8 7.4 7.3 6.6 4.3 2.7 3.3 3.5 3.9 2.8 1.4 2.9 4.1 5.2 6.5 6.5 4.9 5.0 4.9 4.5 3.9 6.4 4.5 6.4 6.1 5.7 6.5 6.5 6.5 5.7 5.4 5.5 5.8 5.3 5.2 4.7 4.6 4.6 3.6 3.4 3.7 3.8 4.1 3.7
7.1 7.0 7.0 7.3 7.6 7.1 6.7 6.0 6.6 6.6 7.0 7.4 5.1 3.7 3.2 1.5 2.3 3.1 3.0 3.0 1.2 1.0 1.4 5.8 3.0 6.5 4.4 4.5 6.1 4.5 5.3 6.5 6.5 6.4 5.0 6.5 6.5 5.8 4.8 4.6 4.4 4.7 5.5 5.3 0.7 2.3 3.1 1.1 3.5 3.6 3.9 3.3 3.4 3.4
7.0 6.9 7.0 7.4 7.5 6.4 6.5 6.2 6.2 6.9 7.3 4.7 3.6 3.1 1.9 2.3 2.8 2.5 2.0 3.6 3.6 6.3 3.1 2.2 3.2 6.2 5.0 6.3 6.5 5.3 6.5 6.5 6.5 6.5 6.5 6.5 6.5 6.2 5.0 4.4 4.0 3.7 4.3 4.5 4.7 4.7 4.2 3.9 2.6 3.2 3.3 3.8 3.4 3.0
6.8 7.0 7.1 7.0 7.0 6.3 6.4 6.4 6.5 5.6 4.2 3.6 2.2 1.9 2.0 2.0 2.5 6.1 6.5 6.0 6.5 6.5 5.2 5.4 5.1 4.7 4.7 4.0 5.1 5.3 6.5 6.5 6.5 5.9 6.5 6.5 6.5 4.1 4.1 4.7 4.7 3.4 3.9 3.9 4.3 4.0 3.8 3.9 3.5 3.0 2.8 2.2 2.0 1.8
6.8 7.1 7.1 6.9 5.4 6.5 6.4 6.4 6.9 4.7 3.5 2.6 1.4 1.6 3.2 2.9 6.5 6.5 6.5 6.5 6.5 5.6 3.9 4.1 6.2 4.3 4.8 4.4 5.1 6.4 6.5 6.5 5.9 6.5 6.5 6.5 4.3 4.6 3.9 1.2 3.6 4.0 4.1 3.7 3.6 3.7 3.7 3.4 3.2 3.4 3.0 2.9 2.5 2.2
6.9 7.4 6.9 5.9 6.4 6.3 6.5 6.9 5.7 5.2 3.4 1.7 1.4 6.5 6.5 6.5 6.5 6.5 6.5 6.4 4.1 3.6 4.6 3.3 4.8 5.1 5.0 5.6 6.3 6.5 6.5 6.4 6.5 6.5 6.5 6.4 3.9 3.8 3.1 3.2 3.3 3.4 3.2 3.0 1.6 1.0 1.3 1.9 2.3 2.8 2.9 2.4 2.3 2.0
7.2 7.0 6.2 6.1 6.3 6.3 6.7 6.7 6.5 3.8 1.4 2.1 2.1 6.5 6.5 5.7 6.2 3.8 1.5 3.6 3.2 4.0 1.6 3.9 4.6 4.5 6.3 6.5 6.5 6.5 6.5 6.5 6.5 6.5 6.5 0.5 1.9 2.0 2.9 3.0 2.8 2.5 0.0 -0.5 -0.6 -0.4 0.1 0.7 1.6 2.3 2.7 2.0 1.6 1.9
7.4 7.5 6.5 6.4 6.5 6.7 6.7 7.1 4.8 2.4 0.9 1.6 2.0 5.5 6.6 5.8 5.2 3.3 3.4 4.7 1.6 1.6 0.5 1.4 6.6 6.5 6.5 6.5 6.5 6.5 6.5 6.5 6.5 6.4 0.8 0.8 1.8 2.1 2.2 2.5 2.5 2.3 2.3 2.5 0.9 0.7 1.5 0.8 1.7 2.0 1.6 1.1 1.7 2.3
7.8 6.9 7.7 7.4 7.1 6.8 7.2 5.0 3.1 1.2 2.2 2.8 4.1 4.6 4.7 1.8 3.0 2.9 4.4 3.5 2.1 1.8 6.5 5.5 6.5 6.5 6.5 6.5 6.5 6.5 6.5 6.5 1.0 0.1 -0.9 1.4 3.1 3.0 2.4 2.4 2.9 3.2 2.9 2.5 1.6 2.0 1.4 1.6 -0.3 -0.2 0.9 2.7 1.4 2.4
6.6 6.7 7.3 7.7 6.6 6.8 3.9 3.3 2.5 2.5 5.3 3.8 5.2 4.8 5.2 3.8 3.7 4.0 2.3 2.3 1.8 1.0 1.1 5.7 3.3 6.5 6.5 6.5 6.5 6.0 1.4 -1.7 -1.2 -0.2 0.6 2.9 2.7 2.3 2.7 2.5 2.8 2.8 2.1 0.7 1.1 0.5 -0.8 0.8 1.8 3.2 3.1 3.4 2.3 2.1
6.7 6.5 6.4 6.1 6.0 4.3 4.3 3.9 2.1 5.7 5.5 4.6 4.9 4.1 4.1 3.9 2.6 2.0 1.7 1.4 0.2 0.2 -0.2 -0.9 6.5 6.5 6.5 3.3 2.0 -1.8 -2.7 -1.0 2.5 2.7 1.8 1.9 1.8 1.9 2.1 1.0 0.8 0.4 0.5 0.4 2.4 3.9 4.0 3.3 3.6 3.9 4.0 3.7 3.9 4.0
7.2 6.5 6.0 6.1 6.3 1.8 2.5 2.9 1.6 4.1 5.8 4.9 3.5 4.0 5.1 3.5 3.0 1.3 1.4 0.4 0.4 -2.5 1.5 5.9 6.5 4.4 2.9 1.1 -1.1 -0.1 -0.6 1.0 1.8 2.6 2.4 2.1 2.0 -0.7 0.5 0.9 1.9 1.2 1.0 0.3 1.5 4.6 3.6 3.1 3.7 3.9 4.3 4.9 6.1 5.5
6.4 6.4 6.4 3.4 1.4 0.6 2.5 2.6 3.3 3.8 3.7 3.6 2.1 2.6 2.8 1.5 1.0 0.7 -2.2 -2.3 -1.2 -2.2 3.0 0.4 1.0 1.0 0.6 0.3 0.9 1.4 1.6 1.6 2.0 2.3 2.8 0.7 1.6 -0.3 0.5 0.3 -0.8 1.4 2.0 4.2 4.3 4.7 5.5 4.6 5.2 5.3 5.6 5.6 5.3 5.1
6.3 6.1 3.4 4.2 0.6 1.5 2.6 2.9 3.0 3.4 2.9 2.2 1.5 2.1 2.1 2.8 1.5 -1.6 -4.0 -1.5 -1.7 -0.5 -0.8 -0.7 -1.3 -1.1 0.7 1.3 1.2 -1.5 1.3 1.5 1.7 1.4 3.7 3.4 2.3 1.5 2.4 3.1 2.0 2.3 1.8 3.2 4.7 5.2 5.7 6.1 6.5 7.0 6.7 6.5 6.4 5.8
5.4 5.8 3.7 1.2 2.7 4.6 4.9 3.9 4.8 3.9 6.5 5.7 3.2 5.8 5.8 4.5 0.8 -1.3 1.4 -1.5 -1.3 -2.5 -1.9 -2.1 -3.6 -4.5 -1.5 -2.7 -2.6 -2.2 -3.0 -1.5 1.8 2.1 2.4 2.1 1.8 0.9 0.7 1.2 1.5 1.0 3.8 4.7 4.7 5.7 5.8 6.7 6.2 6.5 6.4 6.0 5.6 4.9
5.0 3.9 2.3 3.0 4.7 6.5 5.5 4.8 5.3 5.3 5.0 6.1 6.5 6.5 6.4 4.8 -0.2 1.7 6.5 0.1 -0.1 -0.9 -1.3 -3.2 -3.2 -1.2 -1.5 -1.3 -1.3 -1.2 -1.6 -3.3 -2.1 -1.2 0.6 -0.0 -0.7 1.2 1.9 1.7 2.1 2.6 3.8 4.6 5.0 4.8 4.3 4.9 5.8 5.3 5.2 4.5 4.1 4.3
5.9 4.9 4.4 6.4 3.6 6.2 6.5 6.5 6.5 6.5 6.5 6.5 6.5 6.5 6.5 3.1 6.5 6.5 6.5 1.0 -1.7 -1.3 -2.5 -3.7 -3.0 -2.1 -0.1 -1.5 -2.5 -1.6 -1.9 -1.6 -1.2 -0.7 -1.1 -1.5 -0.8 -0.7 -0.8 0.7 2.2 3.5 4.6 3.6 3.2 4.0 4.1 4.4 4.5 4.7 4.5 4.0 4.3 5.6
6.5 5.6 6.2 6.5 5.7 6.5 6.5 6.5 6.5 6.5 6.5 6.5 6.5 5.5 3.3 6.5 6.5 6.5 6.0 -0.3 -0.8 -2.8 -3.0 -1.0 -0.2 -0.9 -1.1 -2.0 -1.0 -1.3 -0.7 -2.8 -3.3 -2.6 -2.3 -1.9 -0.9 -0.3 2.0 4.5 3.6 2.8 2.6 2.2 4.1 4.9 4.4 4.3 4.6 4.8 5.0 4.8 5.5 5.4
6.5 6.5 5.3 5.5 4.6 5.3 6.3 5.7 6.0 6.5 6.5 6.5 6.5 6.5 6.5 6.5 6.5 5.2 -1.0 -2.9 -2.6 -5.2 -3.9 -2.4 -2.2 -1.8 -1.7 -2.3 -1.9 -1.8 -2.8 -5.8 -3.7 -2.9 -2.2 -2.3 -1.5 0.0 2.3 2.4 2.3 3.3 3.4 4.2 4.4 3.9 3.8 4.4 4.8 4.8 4.5 4.1 4.3 4.7
6.0 5.8 6.5 5.2 4.6 3.2 6.5 6.5 6.5 6.5 6.5 5.0 5.6 6.5 6.5 6.5 6.5 0.1 -1.4 -4.8 -6.8 -6.1 -6.0 -7.2 -7.1 -5.7 -5.0 -4.5 -4.7 -3.7 -5.9 -7.4 -6.7 -6.0 -4.3 -2.8 -2.7 -4.0 -2.6 -0.9 0.8 4.8 4.1 2.0 3.8 4.5 4.5 4.1 4.0 3.8 3.7 3.5 3.9 4.1
5.6 5.1 4.9 6.5 6.1 6.3 6.5 6.5 6.5 5.5 4.5 2.9 6.4 6.5 5.3 -0.0 -3.4 -4.3 -4.2 -6.2 -8.5 -3.0 -2.8 -3.3 -5.2 -9.6 -7.7 -7.6 -8.0 -8.0 -8.0 -6.1 -3.6 -3.2 -2.9 -2.4 -2.4 -0.6 -3.1 0.3 0.5 0.7 -0.1 0.2 3.5 4.8 4.3 5.1 4.2 3.7 2.7 2.2 2.3 1.2
5.0 4.6 6.1 6.3 6.5 6.5 6.2 4.2 4.4 2.0 1.4 0.6 1.2 0.0 0.3 -1.4 -4.3 -8.3 -6.5 -5.9 -3.8 -4.4 -5.9 -6.5 -7.8 -6.3 -5.2 -5.2 -5.5 -5.7 -8.0 -7.7 -5.8 -3.3 -3.4 -2.7 -1.7 -1.3 0.0 0.2 1.2 1.4 0.2 0.2 1.1 -0.1 2.6 1.7 -0.1 -1.1 -0.2 0.6 0.7 -1.0
5.1 4.1 5.8 6.5 6.5 5.5 3.6 0.3 -0.3 1.3 -1.6 -1.9 -4.1 -1.7 -1.1 -2.7 -2.9 -5.9 -6.9 -9.1 -8.9 -7.1 -4.8 -6.2 -7.3 -10.2 -6.4 -6.3 -6.4 -5.6 -3.7 -7.1 -7.7 -5.7 -4.7 -2.4 -1.7 -0.8 0.2 1.2 1.8 2.0 0.9 -1.9 -1.4 -1.5 -2.9 -3.1 -3.5 -3.3 -2.4 -2.8 -2.7 -2.3
5.2 5.6 6.4 6.5 6.4 4.1 0.4 -0.9 -1.2 -0.4 -1.7 -1.8 -2.2 -4.6 -3.4 -1.5 0.7 -2.9 -7.1 -7.9 -7.5 -5.7 -2.5 -4.8 -4.6 -3.5 -6.2 -7.8 -8.0 -7.7 -1.1 -6.2 -6.7 -6.3 -4.6 -2.8 -1.7 -0.2 1.0 1.5 0.3 0.1 -2.9 -3.2 -3.3 -3.3 -3.9 -4.2 -4.1 -3.7 -3.0 -3.5 -3.4 -3.7
5.1 5.9 4.5 5.2 5.6 5.3 1.0 1.0 1.1 0.8 -0.5 -1.3 -2.3 -5.3 -6.0 -3.1 0.8 -2.0 -9.3 -10.8 -5.9 -4.1 -3.9 -4.5 -7.9 -7.6 -6.6 -6.7 -7.2 -7.6 -3.6 -7.7 -5.5 0.6 1.7 3.7 5.1 5.5 1.0 -1.5 -0.5 -2.1 -2.7 -3.1 -3.9 -4.5 -4.2 -4.8 -4.4 -4.7 -3.9 -3.3 -3.1 -3.1
Wind_Speed
34 35 34 33 32 31 27 23 29 32 7 21 21 20 13 15 9 4 0 4 4 3 4 4 4 3 3 2 4 3 4 2 2 2 2 2 2 3 2 3 4 5 5 3 2 2 6 3 2 5 2 3 3 2
34 34 33 32 29 28 23 20 26 26 16 19 17 12 5 11 11 6 3 2 5 5 3 1 3 3 4 1 4 3 3 2 3 4 1 2 1 1 3 2 2 1 4 4 6 4 3 4 4 1 2 4 1 2
32 32 30 30 27 25 20 19 25 6 18 17 14 7 10 15 10 6 3 2 4 3 3 4 4 6 5 3 2 3 1 3 2 1 3 2 2 1 3 3 1 1 1 3 2 1 3 4 3 4 3 2 1 1
32 31 28 26 24 21 16 15 22 17 19 16 12 9 15 12 9 6 3 0 4 4 3 2 3 3 8 6 3 1 5 4 5 2 2 2 2 1 2 1 2 4 2 3 1 4 4 2 2 3 2 1 3 4
30 29 26 24 21 17 11 11 13 8 21 17 9 13 13 7 9 10 3 1 2 4 4 2 3 6 5 5 9 7 5 4 3 3 3 1 0 2 1 1 2 2 3 4 4 4 3 2 4 3 2 3 5 5
30 28 24 22 17 13 10 14 20 16 18 19 13 9 10 11 7 2 2 2 2 3 4 3 2 5 5 6 9 7 4 3 3 3 2 1 1 2 2 2 2 2 3 1 4 2 2 3 5 2 3 4 4 5
29 26 23 19 14 9 7 16 27 22 21 18 14 12 11 7 4 3 2 1 2 2 3 4 2 3 3 4 3 3 4 2 3 2 2 2 1 3 2 2 2 3 4 5 4 4 3 1 2 4 4 6 6 6
28 25 21 16 12 10 4 6 25 24 21 18 17 13 9 12 9 3 3 4 3 4 3 4 2 2 1 2 2 2 2 2 4 2 1 2 1 2 0 3 3 4 5 4 3 3 2 1 3 5 4 4 6 6
25 22 18 16 14 15 12 6 22 25 22 20 20 15 3 3 2 1 2 6 6 3 3 3 5 4 1 1 2 2 2 3 2 2 1 1 1 1 3 3 4 4 2 3 1 1 3 3 5 5 4 5 5 7
21 20 18 18 18 18 15 5 26 27 24 20 3 2 2 1 5 2 4 2 4 3 3 3 0 3 3 1 1 2 1 1 1 0 1 1 1 2 2 2 4 3 2 2 3 4 4 3 4 5 5 6 6 6
23 20 18 19 20 20 16 20 34 28 18 2 2 2 0 3 2 3 1 3 0 3 2 2 3 4 1 3 3 2 2 1 2 0 2 2 2 4 5 4 2 1 1 2 2 4 4 5 5 6 7 6 6 8
21 19 20 19 21 23 24 38 39 10 4 5 4 4 2 3 2 3 1 2 2 5 2 4 3 3 1 2 3 2 2 1 1 1 1 2 3 4 5 5 4 2 3 5 4 6 7 6 6 6 6 7 7 7
19 21 20 18 11 37 43 41 29 18 15 3 3 3 2 2 3 5 5 3 2 4 4 3 3 3 2 3 3 2 3 2 2 2 3 3 3 4 5 3 4 2 3 5 6 5 6 7 7 6 8 7 8 8
22 22 18 9 31 41 39 34 27 12 2 3 4 3 4 2 4 4 3 4 2 4 8 4 3 3 2 3 2 4 2 2 2 0 4 3 6 6 5 2 1 4 5 6 5 6 7 7 8 8 7 7 6 8
24 23 18 17 35 38 39 26 11 2 2 3 3 5 4 1 1 1 2 3 1 5 4 4 4 3 2 3 1 3 2 1 4 4 3 3 5 4 3 3 5 6 4 4 3 4 6 7 7 9 9 7 6 7
24 19 10 18 20 36 28 12 4 1 3 3 3 3 1 2 1 2 2 3 2 4 2 3 4 4 1 4 3 4 6 5 3 3 3 2 2 4 4 5 6 6 6 5 4 4 5 6 7 9 10 10 9 7
27 4 23 27 23 36 22 4 2 4 3 3 1 1 2 2 3 2 3 2 2 3 2 3 5 3 3 3 1 3 4 3 3 3 2 4 4 4 6 6 6 7 6 6 4 6 6 6 4 5 8 10 6 8
4 4 22 31 32 20 3 3 3 3 3 1 2 1 2 1 4 3 3 2 2 2 2 3 5 3 4 4 3 3 3 2 2 2 1 2 4 5 5 7 7 7 7 6 6 5 4 7 6 7 7 9 7 8
6 12 40 45 20 5 4 1 2 3 2 2 1 1 2 2 3 2 3 2 2 2 5 3 5 2 3 3 3 2 1 2 2 1 2 4 4 5 6 5 6 5 6 5 7 6 6 7 7 6 6 5 6 7
14 39 42 32 13 3 4 2 2 3 3 3 2 2 2 2 1 2 2 2 2 2 5 3 2 3 3 3 2 3 2 3 3 2 3 3 3 3 4 3 4 4 5 5 5 10 5 4 4 4 4 5 7 7
28 27 28 8 3 4 3 3 3 2 3 3 2 2 2 2 3 2 2 2 3 2 1 2 2 1 3 4 3 3 4 3 3 3 3 3 4 2 3 4 4 4 3 6 6 6 8 5 6 5 6 6 5 6
11 23 4 3 3 3 4 3 4 3 3 2 2 1 3 2 1 2 3 3 2 2 3 3 2 2 3 4 2 2 3 3 1 1 4 6 4 3 6 6 4 5 3 5 5 6 6 6 6 6 5 6 7 7
14 6 3 3 4 3 2 2 4 1 5 4 1 4 2 1 1 2 2 1 2 1 1 2 2 1 4 1 2 3 2 4 1 2 3 3 4 3 3 4 3 3 5 4 3 5 5 12 10 9 8 8 7 7
8 4 3 3 3 4 4 2 2 4 3 2 3 4 2 2 0 2 2 2 1 1 1 2 2 3 3 4 2 1 2 2 1 2 3 3 3 3 3 4 4 3 2 3 4 5 6 6 12 8 8 8 8 7
6 1 3 2 1 5 5 4 2 3 4 3 4 3 3 2 2 1 3 2 1 2 2 2 3 2 3 1 1 2 1 2 1 3 2 1 1 2 2 3 4 2 2 5 7 7 8 7 7 7 8 8 9 10
5 3 4 6 3 5 5 5 5 5 5 4 3 2 2 3 3 4 3 4 3 4 4 5 4 2 0 2 2 1 2 1 1 1 3 1 0 1 2 5 3 5 1 2 6 8 9 8 8 10 9 11 15 11
5 4 2 0 3 5 4 3 3 4 5 5 5 5 3 4 3 3 1 2 3 3 3 4 4 4 4 2 1 1 1 2 2 3 3 1 1 2 1 1 4 5 6 6 7 7 9 10 9 9 9 8 8 8
3 4 7 5 3 1 7 4 3 3 4 3 4 3 8 8 5 3 3 2 3 5 5 3 3 3 3 2 1 1 1 3 3 2 2 2 1 1 1 2 3 12 7 5 7 7 7 8 9 9 9 8 7 5
2 1 3 4 5 6 5 4 3 2 1 3 4 3 4 1 1 1 1 2 2 5 6 4 1 2 3 2 2 2 1 2 4 5 4 3 3 3 2 5 5 5 3 4 14 13 12 9 8 7 6 5 5 3
1 1 4 5 5 5 2 2 3 1 1 2 2 3 2 2 1 1 2 3 4 3 4 3 3 3 3 3 1 3 2 1 3 3 2 3 4 4 6 6 6 6 4 4 6 6 11 5 6 4 5 4 4 3
1 3 5 5 5 2 2 2 2 3 2 3 3 4 3 2 1 1 1 2 3 4 5 3 1 1 4 2 2 2 2 2 3 3 3 4 6 6 6 6 6 5 3 3 4 3 3 3 3 4 5 6 7 6
3 4 5 5 3 1 3 3 2 3 4 4 4 3 3 3 1 2 2 3 3 3 4 5 4 3 4 2 2 2 2 2 3 3 6 5 5 7 5 4 2 1 3 3 3 3 3 3 3 4 4 6 6 6
3 6 6 5 3 2 1 3 4 3 4 3 3 1 0 2 4 3 1 1 3 4 5 4 3 3 4 5 4 2 2 2 4 7 8 9 10 7 2 1 1 1 3 3 3 3 4 4 3 4 4 5 6 6
Wind_Direction
313 315 318 320 324 326 329 342 341 341 129 131 140 136 154 205 143 79 291 1 104 96 18 0 17 78 66 80 140 200 86 350 55 89 122 216 127 229 103 182 177 165 150 195 128 120 264 126 77 177 173 60 103 38
311 313 316 318 320 323 329 340 342 335 134 131 129 130 199 183 135 102 79 16 63 78 132 27 107 72 57 90 129 27 135 113 168 98 100 116 120 70 149 217 51 195 180 189 178 218 37 356 117 61 93 120 169 324
308 310 313 315 318 321 328 337 335 344 120 121 123 160 204 144 130 107 123 144 65 92 52 40 350 333 21 8 232 118 296 158 89 154 151 142 114 135 159 238 149 314 177 125 115 349 95 86 38 43 62 98 31 295
304 306 308 310 314 313 320 332 332 131 121 122 128 163 149 134 120 112 114 163 90 99 98 334 313 14 325 3 32 64 129 77 104 76 94 109 126 136 204 215 181 206 117 129 76 57 80 20 58 147 105 330 297 303
301 301 304 306 306 305 306 313 325 155 131 128 141 147 144 127 115 96 86 54 98 119 126 129 308 352 1 31 47 45 75 83 58 55 58 122 74 103 17 46 272 199 183 166 222 145 139 158 173 143 358 336 323 320
298 299 300 300 296 290 295 298 304 167 138 139 133 142 142 149 147 76 68 3 66 108 104 93 300 1 353 27 44 36 39 61 77 101 124 95 302 102 108 216 331 14 46 149 158 144 112 100 149 136 353 310 282 279
292 292 295 290 280 271 292 302 142 137 137 139 155 136 131 58 56 78 160 173 153 91 92 110 74 317 334 29 26 20 25 56 85 104 70 135 69 79 117 200 310 109 101 73 68 104 85 143 198 314 274 274 295 282
287 285 283 268 258 227 190 32 135 142 144 152 134 119 110 97 111 61 8 41 82 87 74 108 89 25 337 61 61 3 39 31 16 104 47 79 35 50 203 259 155 124 114 91 77 68 156 245 276 285 292 311 312 297
277 277 264 250 230 209 193 334 150 141 141 139 123 121 94 41 63 121 22 51 51 116 120 98 138 176 129 107 109 41 58 66 290 87 65 78 48 241 250 186 157 181 200 187 171 236 231 263 290 300 301 312 290 291
269 259 246 244 207 201 191 224 149 141 146 139 87 84 87 310 318 347 21 35 22 353 36 96 77 103 111 104 54 86 22 102 69 1 88 89 228 262 348 68 142 152 100 45 42 321 317 310 301 311 287 269 258 270
255 240 239 211 198 187 210 182 138 138 134 84 146 108 176 317 69 39 50 105 328 36 19 154 128 127 308 111 116 143 128 71 141 237 127 245 212 200 180 171 185 145 5 339 278 285 282 271 277 294 297 299 298 299
224 229 209 189 200 234 211 149 143 139 168 164 130 106 84 47 53 92 295 335 79 184 164 116 155 130 120 110 95 305 110 131 185 119 159 244 244 193 191 202 206 208 330 320 307 300 309 301 297 285 273 271 276 264
211 200 187 198 246 161 150 144 155 132 115 87 62 78 114 321 55 150 199 279 145 174 176 153 116 119 83 63 79 100 99 165 170 175 228 227 206 192 212 242 268 325 315 301 305 307 303 292 290 273 279 276 277 282
183 179 178 212 156 142 142 149 150 136 127 126 140 163 177 205 242 185 191 166 174 120 131 120 98 106 119 70 118 94 163 103 61 353 234 242 208 205 211 238 251 274 289 293 284 285 288 284 295 291 272 269 280 289
174 167 160 164 151 145 150 154 129 63 112 108 91 202 197 144 81 248 183 92 36 135 116 103 67 88 55 97 107 105 90 257 203 225 230 230 200 193 226 237 247 265 268 264 251 273 292 295 295 296 291 275 266 271
170 159 181 193 149 153 148 132 54 96 59 79 65 90 124 73 348 23 77 117 216 128 86 58 102 71 65 130 97 189 128 210 236 219 229 168 194 221 238 244 251 250 248 261 267 256 275 282 286 288 297 288 277 258
170 176 168 181 188 158 144 90 57 52 104 65 306 323 120 102 148 176 139 127 119 79 129 111 77 178 103 60 125 189 193 209 210 229 210 198 219 246 256 263 259 255 257 259 256 276 270 273 283 301 298 303 285 276
161 184 178 176 145 134 25 31 93 88 88 30 107 296 65 38 113 106 113 109 99 116 103 163 125 105 153 148 241 228 212 242 215 194 204 247 259 272 271 271 270 258 261 262 256 258 255 283 287 287 284 293 294 291
150 168 150 141 139 113 117 258 86 110 127 149 114 41 74 71 49 68 87 82 113 117 108 54 75 141 202 205 182 215 220 185 165 225 255 282 291 292 293 290 278 280 273 258 275 283 284 267 269 277 277 289 291 295
173 149 143 145 144 111 113 95 85 104 123 148 83 59 70 78 64 43 53 33 64 86 49 66 170 199 153 186 175 134 142 139 112 358 295 294 293 309 298 282 290 281 285 283 276 292 284 280 264 257 269 280 304 304
152 152 144 98 54 48 91 131 76 119 121 84 142 92 83 31 38 14 348 325 63 89 90 203 155 132 94 94 101 111 116 127 169 187 247 301 305 277 305 303 280 299 295 313 306 300 309 288 293 294 294 294 288 290
132 130 90 72 94 66 80 13 116 125 74 122 89 76 84 73 32 306 279 57 97 205 172 153 186 154 107 112 121 105 109 134 164 255 283 282 297 322 322 316 315 310 300 297 300 306 311 311 309 313 310 311 319 311
123 132 83 89 92 57 94 338 90 53 128 173 85 89 49 79 250 315 57 223 229 237 159 131 146 102 113 99 70 50 142 144 152 286 308 300 288 269 282 293 293 308 325 320 332 335 332 327 322 328 326 325 321 315
92 70 102 104 87 114 129 89 90 106 102 107 97 106 153 184 351 34 136 261 240 118 105 136 127 90 39 43 73 249 287 124 93 281 253 272 295 307 316 316 322 308 318 330 330 321 319 320 328 324 322 318 310 304
104 74 112 97 79 119 115 118 107 84 107 138 110 127 191 163 98 115 186 249 196 182 171 132 97 96 130 190 288 264 292 108 20 302 284 140 311 299 333 306 309 317 13 351 334 327 323 323 317 311 311 307 302 303
97 173 176 166 152 124 168 124 152 142 116 98 83 121 140 153 105 194 219 189 183 169 173 163 145 121 55 196 166 227 251 185 153 227 279 111 263 217 294 325 346 319 343 330 310 317 316 311 307 308 309 312 318 323
131 206 212 302 111 123 104 74 96 105 110 137 154 155 156 95 200 243 274 223 159 201 163 145 139 146 160 182 233 205 191 160 171 227 282 297 285 257 248 96 309 293 307 305 313 304 301 307 309 306 303 304 302 304
133 179 148 179 116 264 121 87 92 104 141 165 116 128 149 169 189 205 191 207 131 111 97 78 76 110 126 166 165 38 10 318 313 338 30 20 343 341 229 264 248 323 325 305 303 313 316 306 297 295 294 293 305 326
102 67 127 82 83 50 47 76 108 116 96 145 118 144 179 227 219 153 164 146 146 116 115 119 43 52 54 56 73 44 124 76 61 32 10 314 332 302 309 324 315 307 288 296 322 330 324 320 333 314 318 310 309 326
87 4 89 48 60 64 53 337 102 126 74 83 96 97 69 30 341 334 104 121 125 151 163 147 143 141 152 136 276 347 356 122 130 129 194 257 251 276 301 302 303 298 293 306 314 316 335 354 347 358 354 360 356 2
53 91 79 54 79 29 55 22 15 69 47 53 4 88 115 161 331 342 123 115 118 126 126 119 98 177 145 148 131 100 338 264 199 214 234 256 263 270 275 281 280 283 303 328 318 314 323 340 341 348 359 359 351 3
29 58 116 93 97 68 28 51 52 63 15 42 14 35 24 58 111 276 189 120 114 144 192 155 141 205 201 171 139 167 215 169 213 229 263 267 271 266 274 271 296 345 3 357 346 338 350 338 336 352 343 345 340 339
69 69 73 88 101 178 249 98 40 71 36 48 23 10 287 158 173 227 297 171 158 179 181 185 175 140 151 157 156 172 180 212 271 289 304 310 327 353 2 325 154 30 29 11 347 346 9 358 338 339 342 340 331 327